Probability
0 0 0 0 0 0 0 0 0 0 0 0 0 0 0 0 0 0 0 0 0 0 0 0 0 0 0 0 0 0 0 0 0 0 0 0 0 0 0 0 0 0 0
0 0 0 0 0 0 0 0 0 0 0 0 0 0 0 0 0 0 0 0 0 0 0 0 0 0 0 0 0 0 0 0 0 0 0 0 0 0 0 0 0 0 0
0 0 0 0 0 0 0 0 0 0 0 0 0 0 0 0 0 0 0 0 0 0 0 0 0 0 0 0 0 0 0 0 0 0 0 0 0 0 0 0 0 0 0
0 0 0 0 0 0 0 0 0 0 0 0 0 0 0 0 0 0 0 0 0 0 0 0 0 0 0 0 0 0 0 0 0 0 0 0 0 0 0 0 0 0 0
0 0 0 0 0 0 0 0 0 0 0 0 0 0 0 0 0 0 0 0 0 0 0 0 0 0 0 0 0 0 0 0 0 0 0 0 0 0 0 0 0 0 0
0 0 0 0 0 0 0 0 0 0 0 0 0 0 0 0 0 0 0 0 0 0 0 0 0 0 0 0 0 0 0 0 0 0 0 0 0 0 0 0 0 0 0
0 0 0 0 0 0 0 0 0 0 0 0 0 0 0 0 0 0 0 0 0 0 0 0 0 0 0 0 0 0 0 0 0 0 0 0 0 0 0 0 0 0 0
0 0 0 0 0 0 0 0 0 0 0 0 0 0 0 0 0 0 0 0 0 0 0 0 0 0 0 0 0 0 0 0 0 0 0 0 0 0 0 0 0 0 0
0 0 0 0 0 0 0 0 0 0 0 0 0 0 0 0 0 0 0 0 0 0 0 0 0 0 0 0 0 0 0 0 0 0 0 0 0 0 0 0 0 0 0
0 0 0 0 0 0 0 0 0 0 0 0 0 0 0 0 0 0 0 0 0 0 0 0 0 0 0 0 0 0 0 0 0 0 0 0 0 0 0 0 0 0 0
0 0 0 0 0 0 0 0 0 0 0 0 0 0 0 0 0 0 0 0 0 0 0 0 0 0 0 0 0 0 0 0 0 0 0 0 0 0 0 0 0 0 0
0 0 0 0 0 0 0 0 0 0 0 0 0 0 0 0 0 0 0 0 0 0 0 0 0 0 0 0 0 0 0 0 0 0 0 0 0 0 0 0 0 0 0
0 0 0 0 0 0 0 0 0 0 0 0 0 0 0 0 0 0 0 0 0 0 0 0 0 0 0 0 0 0 0 0 0 0 0 0 0 0 0 0 0 0 0
0 0 0 0 0 0 0 0 0 0 0 0 0 0 0 0 0 0 0 0 0 0 0 0 0 0 0 0 0 0 0 0 0 0 0 0 0 0 0 0 0 0 0
0 0 0 0 0 0 0 0 0 0 0 0 0 0 0 0 0 0 0 0 0 0 0 0 0 0 0 0 0 0 0 0 0 0 0 0 0 0 0 0 0 0 0
0 0 0 0 0 0 0 0 0 0 0 0 0 0 0 0 0 0 0 0 0 0 0 0 0 0 0 0 0 0 0 0 0 0 0 0 0 0 0 0 0 0 0
0 0 0 0 0 0 0 0 0 0 0 0 0 0 0 0 0 0 0 0 0 0 0 0 0 0 0 0 0 0 0 0 0 0 0 0 0 0 0 0 0 0 0
0 0 0 0 0 0 0 0 0 0 0 0 0 0 0 0 0 0 0 0 0 0 0 0 0 0 0 0 0 0 0 0 0 0 0 0 0 0 0 0 0 0 0
0 0 0 0 0 0 0 0 0 0 0 0 0 0 0 0 0 0 0 0 0 0 0 0 0 0 0 0 0 0 0 0 0 0 0 0 0 0 0 0 0 0 0
0 0 0 0 0 0 0 0 0 0 0 0 0 0 0 0 0 0 0 0 0 0 0 0 0 0 0 0 0 0 0 0 0 0 0 0 0 0 0 0 0 0 0
0 0 0 0 0 0 0 0 0 0 0 0 0 0 0 0 0 0 0 0 0 0 0 0 0 0 0 0 0 0 0 0 0 0 0 0 0 0 0 0 0 0 0
0 0 0 0 0 0 0 0 0 0 0 0 0 0 0 0 0 0 0 0 0 0 0 0 0 0 0 0 0 0 0 0 0 0 0 0 0 0 0 0 0 0 0
0 0 0 0 0 0 0 0 0 0 0 0 0 0 0 0 0 0 0 0 0 0 0 0 0 0 0 0 0 0 0 0 0 0 0 0 0 0 0 0 0 0 0
0 0 0 0 0 0 0 0 0 0 0 0 0 0 0 0 0 0 0 0 0 0 0 0 0 0 0 0 0 0 0 0 0 0 0 0 0 0 0 0 0 0 0
0 0 0 0 0 0 0 0 0 0 0 0 0 0 0 0 0 0 0 0 0 0 0 0 0 0 0 0 0 0 0 0 0 0 0 0 0 0 0 0 0 0 0
0 0 0 0 0 0 0 0 0 0 0 0 0 0 0 0 0 0 0 0 0 0 0 0 0 0 0 0 0 0 0 0 0 0 0 0 0 0 0 0 0 0 0
Wind_Speed
3 3 3 3 3 3 3 3 3 3 3 3 3 4 4 4 4 4 4 4 4 4 4 4 4 4 3 3 3 3 3 4 7 7 4 4 5 6 7 6 6 6 7
3 3 3 3 3 3 3 3 3 3 3 3 3 4 4 4 4 4 4 4 4 5 5 4 5 4 4 3 3 4 4 4 5 9 7 5 6 6 7 7 7 6 6
2 3 3 3 3 3 3 3 3 3 3 3 3 4 4 4 4 4 4 4 4 4 4 4 5 5 5 4 4 4 4 5 4 6 8 6 5 5 7 7 7 6 7
2 2 3 3 3 3 3 3 3 3 3 4 4 3 4 4 4 4 4 5 4 4 5 5 5 5 5 5 5 5 5 5 5 5 6 6 6 6 6 7 8 6 7
2 2 3 3 3 3 3 3 4 4 4 4 4 4 4 4 4 5 4 4 4 4 5 5 5 7 8 7 6 5 5 5 5 6 6 7 7 7 7 7 9 8 7
1 2 2 2 2 3 3 3 3 4 4 4 4 4 4 4 7 8 6 3 4 4 5 5 5 5 8 10 10 10 9 7 7 6 6 7 9 8 8 8 8 9 8
1 2 2 2 2 3 3 3 3 3 3 4 4 4 4 6 8 8 9 5 4 4 4 5 5 5 6 6 8 10 9 10 10 7 7 8 9 9 10 10 9 9 9
1 2 2 2 2 3 3 3 3 3 3 3 4 4 4 5 8 9 9 5 3 4 4 5 5 6 7 8 6 7 7 7 8 6 5 7 7 8 8 9 9 9 9
2 2 2 2 2 2 2 3 2 2 3 3 3 3 4 6 8 9 9 3 3 4 4 4 5 6 10 12 8 7 8 7 9 12 13 12 14 14 12 7 7 7 8
3 2 2 1 1 2 2 2 2 2 2 3 3 3 4 5 8 9 9 3 4 4 4 5 6 9 12 12 7 6 8 8 8 9 9 10 9 10 12 7 6 6 7
2 2 1 1 1 1 1 1 2 2 2 2 3 4 4 4 7 9 9 4 4 4 4 4 5 12 13 13 10 6 9 10 6 7 6 6 6 6 6 6 5 5 6
1 1 1 1 1 1 1 1 1 1 2 2 3 4 3 3 5 7 9 7 7 4 4 4 6 12 13 13 10 10 13 10 5 5 6 6 7 7 7 7 7 6 7
0 1 1 1 1 1 1 1 1 1 1 2 2 3 4 3 4 7 8 9 9 5 4 7 10 12 11 9 11 12 9 5 5 5 6 6 6 7 8 7 7 7 8
1 1 1 1 1 1 1 1 1 1 1 2 2 3 3 3 3 3 3 4 5 5 4 6 9 10 8 8 7 7 5 4 5 5 6 6 6 6 6 6 7 7 7
1 1 1 1 1 1 1 1 2 2 2 3 2 2 3 4 5 7 5 3 3 3 3 3 3 4 5 5 5 4 4 5 5 5 6 7 7 7 7 6 5 5 5
2 1 1 1 1 1 1 2 3 4 5 6 5 4 4 6 8 8 8 8 8 7 4 3 4 4 4 5 5 6 5 5 5 6 6 6 7 7 7 6 5 5 7
3 2 1 1 1 1 1 1 3 4 4 5 6 6 6 8 8 8 8 8 8 7 3 3 4 4 4 5 5 5 5 5 5 5 6 6 6 7 7 7 7 6 7
3 2 2 2 2 2 2 2 2 2 3 4 5 7 8 8 8 8 8 6 4 4 2 3 4 4 4 4 5 5 5 5 5 5 6 6 6 6 7 7 7 7 7
3 2 2 2 2 2 2 2 2 2 3 3 3 4 6 7 8 7 6 2 2 3 3 3 3 4 4 4 4 5 5 5 5 5 5 6 6 6 6 7 7 9 7
3 3 3 2 2 2 2 2 2 2 3 3 3 4 3 2 2 3 2 2 2 3 3 4 4 4 4 4 4 4 5 5 5 5 5 6 5 5 6 8 7 7 7
3 3 3 2 2 2 2 3 3 3 3 4 4 4 5 2 3 3 3 3 3 4 4 4 4 4 4 4 4 4 5 5 5 5 5 5 5 6 6 6 7 7 7
3 3 3 3 3 3 3 3 3 3 4 4 4 4 6 3 3 3 3 4 4 4 3 4 4 4 4 4 4 4 5 6 6 5 6 6 6 6 6 6 7 7 7
3 3 3 3 2 3 3 3 3 3 4 4 4 3 3 3 3 4 4 4 3 3 3 3 4 4 4 4 4 4 5 6 6 6 6 6 6 6 6 6 8 8 8
4 4 4 3 3 3 3 3 3 4 4 4 4 4 4 4 4 4 4 4 3 4 3 3 4 6 7 6 4 4 5 6 6 5 6 6 7 6 6 6 7 8 8
4 4 4 4 4 4 4 4 4 4 4 4 4 4 4 4 4 4 4 3 4 4 5 5 4 5 7 8 7 7 9 11 8 5 5 5 7 7 6 7 7 7 7
4 4 4 3 4 4 4 4 4 4 4 4 4 4 4 4 4 4 4 3 4 4 5 4 6 7 8 7 8 10 10 11 9 8 5 5 6 6 6 6 7 7 7
Wind_Direction
356 356 354 350 352 359 4 356 349 351 357 356 353 355 359 355 352 350 346 346 346 343 346 347 345 341 332 326 318 311 302 293 286 294 299 308 307 309 312 310 305 302 304
346 347 342 344 356 8 5 355 356 358 1 1 4 4 360 358 354 353 349 354 350 347 349 348 344 342 339 330 330 325 316 308 297 300 306 310 307 309 309 309 312 310 305
345 346 345 352 358 4 0 356 358 1 3 8 10 6 359 352 350 351 350 349 344 343 347 345 341 343 335 331 331 327 320 316 304 298 302 306 304 311 313 310 307 303 306
345 346 344 345 350 357 0 4 5 3 7 7 5 0 356 347 343 345 352 351 352 356 355 351 347 342 331 329 330 329 328 325 318 308 306 309 310 314 315 317 315 313 308
342 338 331 341 355 2 8 8 7 7 6 3 5 3 357 346 345 353 355 359 357 355 355 352 348 347 344 341 335 334 329 323 321 318 315 316 319 326 324 319 310 312 303
331 328 336 346 358 0 2 2 4 4 6 6 6 359 352 342 344 352 358 1 354 353 349 346 343 348 348 349 346 340 335 327 322 317 313 315 317 320 318 316 314 317 312
331 337 341 342 351 351 353 357 356 354 4 5 1 0 352 344 351 353 355 358 355 349 340 339 340 341 338 339 343 343 340 336 333 324 314 314 314 317 316 314 313 309 299
332 331 336 339 337 343 351 345 344 352 357 352 349 353 347 340 347 349 354 359 352 347 341 338 335 334 334 339 340 337 333 332 329 327 314 310 311 314 312 309 306 302 295
312 311 317 320 322 333 330 328 342 351 347 343 343 352 342 334 342 346 350 348 346 341 337 340 335 328 332 340 342 334 329 328 333 330 326 323 325 328 329 325 321 318 311
283 291 304 307 298 299 304 328 349 343 339 339 337 346 341 333 337 344 346 345 340 338 337 340 337 333 335 339 340 332 324 326 330 328 329 330 330 328 333 330 316 311 310
294 305 315 308 292 294 317 339 349 346 346 339 332 333 335 329 331 339 343 346 340 334 332 335 334 334 338 340 340 333 324 330 330 327 324 325 328 329 329 327 319 305 298
309 305 310 317 319 334 334 333 349 352 336 326 328 325 327 327 332 339 343 343 341 333 327 328 327 333 339 341 340 335 338 341 338 329 326 327 328 326 323 320 312 300 284
319 291 300 323 333 350 334 317 338 339 314 311 320 317 320 326 329 334 337 339 339 336 330 329 331 335 340 342 341 341 345 347 338 331 325 320 318 315 316 315 313 309 300
222 264 298 308 323 343 320 293 278 271 271 287 298 301 308 315 317 323 329 333 336 335 338 339 340 342 343 343 344 346 346 337 330 321 316 313 314 318 319 321 319 325 321
217 243 282 286 287 290 278 257 257 253 254 266 267 271 290 299 307 318 326 321 323 333 342 341 343 343 345 341 339 337 336 337 333 326 320 319 321 322 320 323 319 321 316
206 223 232 248 267 282 296 312 290 280 289 287 288 289 290 296 314 322 327 330 337 342 349 338 335 334 329 327 326 326 327 329 325 322 319 318 320 321 320 323 322 319 314
208 215 214 221 235 255 273 286 308 321 308 305 310 311 308 313 319 324 329 336 342 352 358 330 322 322 319 316 315 315 316 318 318 318 318 320 321 321 320 320 322 321 316
210 214 207 214 222 231 240 250 260 284 308 312 316 314 318 321 323 327 334 347 344 353 326 310 308 309 308 309 309 310 310 314 316 317 316 317 318 317 318 319 318 316 313
202 211 208 210 216 228 239 248 256 262 276 294 310 314 318 318 323 330 341 346 302 303 302 297 295 297 299 300 301 302 302 305 308 310 310 311 313 315 314 315 314 312 309
209 216 204 205 214 225 232 239 248 255 265 275 280 288 309 326 323 323 326 302 289 288 290 290 291 288 290 291 295 298 301 302 305 305 306 308 309 309 309 310 312 312 309
202 208 201 205 216 223 227 232 240 246 255 265 270 279 293 293 281 283 285 284 280 280 283 284 285 286 285 288 291 293 294 296 298 300 303 305 307 307 306 305 306 305 305
191 198 200 211 219 223 230 233 235 242 251 262 277 288 292 291 278 276 273 273 270 267 268 273 278 276 275 278 283 288 290 293 295 298 301 303 303 303 306 307 307 309 309
187 195 206 216 219 228 235 235 235 242 251 256 265 272 272 264 265 269 272 274 275 275 274 271 276 281 281 278 272 270 277 282 285 288 294 298 300 301 303 303 305 309 310
191 197 206 213 214 221 233 240 241 244 249 255 257 259 262 265 266 269 273 276 276 276 273 272 271 277 284 288 282 275 273 280 282 279 277 283 290 294 296 298 301 303 304
193 201 207 212 214 221 231 239 243 245 248 252 255 259 264 266 269 271 271 271 274 276 278 277 275 279 283 285 285 285 287 291 288 278 273 275 281 286 292 296 299 303 303
199 204 210 213 217 220 225 235 242 245 248 253 254 256 259 262 266 269 270 271 277 278 279 277 276 281 284 285 286 291 291 292 290 280 273 273 279 286 293 293 298 301 303